EW6828 Weather Reports


time (UTC)temp
F
wind
direction
speed
knots
gust
knots
rain 1hr
in
rain 24hr
in
rain mn
in
humidity
%
barometer
mb
20260508220456 58 250 1.7 7.0 0.00 0.00 0.00 26 1010.1
20260508215959 58 243 3.5 6.1 0.00 0.00 0.00 25 1010.2
20260508215456 58 231 1.7 7.8 0.00 0.00 0.00 26 1010.0
20260508214959 58 223 1.7 9.6 0.00 0.00 0.00 25 1009.8
20260508213456 58 234 4.3 7.8 0.00 0.00 0.00 24 1009.5
20260508212959 59 231 2.6 9.6 0.00 0.00 0.00 24 1009.7
20260508210957 60 243 4.3 9.6 0.00 0.00 0.00 22 1009.5
20260508210456 60 242 1.7 13.0 0.00 0.00 0.00 22 1009.4
20260508205958 60 237 4.3 14.8 0.00 0.00 0.00 22 1009.5
20260508205457 60 235 5.2 14.8 0.00 0.00 0.00 21 1009.3
20260508204959 61 237 5.2 12.2 0.00 0.00 0.00 21 1009.5
20260508204456 61 248 2.6 12.2 0.00 0.00 0.00 22 1009.5
20260508203959 62 252 2.6 13.9 0.00 0.00 0.00 22 1009.2
20260508203456 62 251 4.3 14.8 0.00 0.00 0.00 21 1009.1
20260508202959 62 229 6.1 14.8 0.00 0.00 0.00 21 1009.3
20260508202456 62 224 6.1 12.2 0.00 0.00 0.00 21 1009.1
20260508201958 62 239 5.2 14.8 0.00 0.00 0.00 23 1008.9
20260508200958 62 236 9.6 15.6 0.00 0.00 0.00 22 1008.9
20260508200458 62 239 5.2 15.6 0.00 0.00 0.00 23 1008.6
20260508195958 62 249 7.0 15.6 0.00 0.00 0.00 23 1009.0
20260508195455 62 253 7.0 15.6 0.00 0.00 0.00 23 1009.2
20260508194959 63 244 5.2 13.9 0.00 0.00 0.00 23 1009.2
20260508194456 63 236 6.1 17.4 0.00 0.00 0.00 25 1009.0
20260508193959 62 232 3.5 17.4 0.00 0.00 0.00 26 1009.1
20260508193456 62 238 3.5 14.8 0.00 0.00 0.00 26 1009.2
20260508192958 62 243 8.7 14.8 0.00 0.00 0.00 25 1009.5
20260508192456 62 244 6.1 13.9 0.00 0.00 0.00 26 1008.8
20260508191958 63 244 7.0 14.8 0.00 0.00 0.00 25 1009.2
20260508191456 62 234 5.2 14.8 0.00 0.00 0.00 27 1009.3
20260508190456 63 252 5.2 14.8 0.00 0.00 0.00 28 1009.4
20260508185958 62 265 4.3 14.8 0.00 0.00 0.00 28 1009.4
20260508185457 62 256 2.6 13.9 0.00 0.00 0.00 29 1009.6
20260508184959 62 252 3.5 13.9 0.00 0.00 0.00 29 1009.5
20260508184457 62 236 9.6 13.9 0.00 0.00 0.00 29 1009.6
20260508183457 62 246 3.5 13.0 0.00 0.00 0.00 30 1009.8
20260508182958 61 248 5.2 13.0 0.00 0.00 0.00 30 1009.8
20260508182455 62 248 7.8 18.2 0.00 0.00 0.00 31 1009.8
20260508181456 61 248 7.0 18.2 0.00 0.00 0.00 30 1009.9
20260508180958 61 256 6.1 13.0 0.00 0.00 0.00 31 1010.0
20260508180457 61 267 4.3 13.0 0.00 0.01 0.00 31 1010.2
20260508175958 61 258 7.0 13.0 0.00 0.01 0.00 31 1010.2
20260508175456 60 250 5.2 15.6 0.00 0.01 0.00 31 1010.4
20260508174959 60 249 7.0 17.4 0.00 0.01 0.00 31 1010.2
20260508174456 60 244 6.1 17.4 0.00 0.01 0.00 32 1010.2
20260508173958 60 243 7.0 17.4 0.00 0.01 0.00 32 1010.1
20260508173456 60 251 7.0 14.8 0.00 0.01 0.00 32 1010.4
20260508172959 61 249 3.5 13.0 0.00 0.01 0.00 34 1010.1
20260508172458 61 237 3.5 15.6 0.00 0.23 0.00 34 1010.2
20260508171959 60 243 3.5 15.6 0.00 0.23 0.00 35 1010.3
20260508171456 61 243 5.2 13.9 0.00 0.23 0.00 34 1010.6
20260508170959 60 234 5.2 12.2 0.00 0.23 0.00 36 1010.6
20260508165456 60 243 3.5 13.0 0.00 0.23 0.00 36 1010.7
20260508165001 60 244 6.1 14.8 0.00 0.23 0.00 36 1011.0
20260508164456 59 239 6.1 14.8 0.00 0.23 0.00 36 1011.1
20260508163958 59 237 4.3 13.0 0.00 0.23 0.00 36 1011.0
20260508162959 59 221 3.5 14.8 0.00 0.23 0.00 36 1011.4
20260508162458 59 245 7.0 12.2 0.00 0.23 0.00 38 1011.3
20260508161456 59 231 6.1 11.3 0.00 0.23 0.00 38 1011.7
20260508160457 58 259 7.0 14.8 0.00 0.23 0.00 39 1011.7
20260508155958 58 270 7.0 14.8 0.00 0.23 0.00 39 1011.8
20260508155456 58 274 4.3 14.8 0.00 0.23 0.00 39 1012.1
20260508155000 57 261 3.5 12.2 0.00 0.23 0.00 39 1012.1
20260508154456 57 239 7.8 13.0 0.00 0.23 0.00 40 1012.2
20260508153958 58 239 5.2 13.9 0.00 0.23 0.00 40 1012.2
20260508152456 57 248 7.0 13.0 0.00 0.23 0.00 40 1012.6
20260508151959 56 247 6.1 18.2 0.00 0.23 0.00 41 1012.6
20260508151456 56 252 6.1 18.2 0.00 0.23 0.00 41 1012.6
20260508151000 56 246 4.3 14.8 0.00 0.23 0.00 41 1012.8
20260508150458 57 241 8.7 15.6 0.00 0.23 0.00 41 1012.8
20260508145958 55 245 4.3 15.6 0.00 0.23 0.00 42 1013.0
20260508145457 56 239 7.0 15.6 0.00 0.23 0.00 42 1013.0
20260508144958 56 238 7.0 15.6 0.00 0.23 0.00 42 1012.9
20260508144456 56 237 2.6 13.9 0.00 0.23 0.00 41 1012.8
20260508143959 56 234 9.6 14.8 0.00 0.23 0.00 43 1012.8
20260508143457 55 242 7.8 14.8 0.00 0.23 0.00 43 1012.9
20260508143000 55 253 9.6 17.4 0.00 0.23 0.00 43 1012.9
20260508142456 55 247 6.1 17.4 0.00 0.23 0.00 44 1012.8
20260508141958 55 248 4.3 15.6 0.00 0.23 0.00 44 1012.8
20260508141458 54 240 8.7 15.6 0.00 0.23 0.00 44 1013.0
20260508141000 54 239 5.2 15.6 0.00 0.23 0.00 44 1012.9
20260508140456 54 247 3.5 13.0 0.00 0.23 0.00 44 1013.1
20260508135959 54 241 4.3 14.8 0.00 0.23 0.00 44 1012.9
20260508135458 54 228 5.2 17.4 0.00 0.12 0.00 44 1013.0
20260508134958 54 222 9.6 17.4 0.00 0.12 0.00 45 1012.8
20260508133458 53 211 7.8 18.2 0.00 0.12 0.00 46 1012.7
20260508132959 53 218 6.1 20.0 0.00 0.12 0.00 46 1012.8
20260508131958 52 229 6.1 12.2 0.00 0.12 0.00 47 1013.0
20260508131456 52 231 7.0 12.2 0.00 0.12 0.00 47 1012.7
20260508130959 52 248 3.5 13.0 0.00 0.12 0.00 48 1012.7
20260508130457 52 250 3.5 13.0 0.00 0.12 0.00 48 1012.5
20260508125958 51 240 7.8 13.0 0.00 0.12 0.00 48 1012.7
20260508125457 51 234 5.2 13.0 0.00 0.12 0.00 49 1012.6
20260508124959 51 237 7.0 14.8 0.00 0.12 0.00 49 1012.8
20260508124457 51 246 5.2 14.8 0.00 0.12 0.00 50 1012.7
20260508123958 50 244 4.3 13.9 0.00 0.12 0.00 50 1012.6
20260508123457 50 249 5.2 17.4 0.00 0.12 0.00 51 1012.4
20260508122458 49 240 3.5 12.2 0.00 0.12 0.00 52 1012.6
20260508121959 49 227 5.2 12.2 0.00 0.12 0.00 53 1012.5
20260508121458 49 237 4.3 11.3 0.00 0.12 0.00 55 1012.5
20260508121000 49 239 3.5 11.3 0.00 0.12 0.00 55 1012.6
20260508120458 48 228 4.3 13.0 0.00 0.12 0.00 55 1012.5
20260508115959 48 252 7.8 13.0 0.00 0.12 0.00 56 1012.1
20260508115458 48 253 7.8 13.0 0.00 0.12 0.00 57 1012.4
20260508114959 48 251 3.5 11.3 0.00 0.12 0.00 57 1012.3
20260508113958 48 251 5.2 9.6 0.00 0.12 0.00 57 1012.2
20260508113457 48 265 3.5 9.6 0.00 0.12 0.00 57 1011.9
20260508111958 47 241 3.5 13.0 0.00 0.12 0.00 57 1011.8
20260508111456 47 247 5.2 14.8 0.00 0.12 0.00 58 1011.9
20260508110456 47 241 7.0 14.8 0.00 0.12 0.00 57 1011.7
20260508105959 47 254 4.3 14.8 0.00 0.12 0.00 57 1011.4
20260508104457 48 243 4.3 12.2 0.00 0.12 0.00 54 1011.1
20260508103959 48 230 5.2 11.3 0.00 0.12 0.00 53 1011.0
20260508102959 49 242 5.2 14.8 0.00 0.12 0.00 51 1010.7
20260508102458 49 240 7.0 14.8 0.00 0.12 0.00 51 1010.6
20260508102000 49 232 6.1 13.0 0.00 0.12 0.00 50 1010.6
20260508101456 49 246 7.0 12.2 0.00 0.12 0.00 50 1010.3
20260508100959 49 234 3.5 13.9 0.00 0.12 0.00 50 1010.3
20260508100458 49 227 7.8 18.2 0.00 0.12 0.00 49 1010.3
20260508095959 49 222 7.0 18.2 0.00 0.12 0.00 49 1010.3
20260508095458 49 218 7.0 14.8 0.00 0.12 0.00 49 1010.2
20260508094959 49 223 7.8 14.8 0.00 0.12 0.00 49 1010.3
20260508094459 49 233 9.6 14.8 0.00 0.12 0.00 50 1010.2
20260508093457 49 227 7.0 13.9 0.00 0.12 0.00 52 1010.4
20260508093000 49 223 7.0 18.2 0.00 0.12 0.00 54 1010.3
20260508092458 49 220 6.1 18.2 0.00 0.12 0.00 54 1010.2
20260508091959 48 226 6.1 14.8 0.00 0.12 0.00 55 1010.1
20260508091457 48 239 7.0 14.8 0.00 0.12 0.00 56 1009.9
20260508090959 48 239 6.1 15.6 0.00 0.12 0.00 56 1009.7
20260508084959 48 236 7.0 13.0 0.00 0.12 0.00 58 1009.1
20260508084000 48 244 6.1 13.9 0.00 0.12 0.00 59 1009.2
20260508083457 48 236 7.8 13.9 0.00 0.12 0.00 59 1009.1
20260508082959 48 234 7.0 11.3 0.00 0.12 0.00 59 1009.1
20260508082457 48 248 3.5 13.0 0.00 0.12 0.00 59 1009.0
20260508081959 48 244 3.5 13.0 0.00 0.12 0.00 59 1009.3
20260508081457 49 229 5.2 13.0 0.00 0.12 0.00 58 1009.2
20260508080959 49 229 6.1 11.3 0.00 0.12 0.00 58 1009.1
20260508080458 49 243 4.3 11.3 0.00 0.12 0.00 58 1009.2
20260508075959 49 229 6.1 12.2 0.00 0.12 0.00 57 1009.3
20260508075457 49 208 4.3 13.0 0.00 0.12 0.00 57 1009.2
20260508075000 49 214 3.5 13.0 0.00 0.12 0.00 57 1009.2
20260508074459 50 213 3.5 12.2 0.00 0.15 0.00 57 1009.0
20260508073959 50 214 3.5 12.2 0.00 0.15 0.00 57 1009.2
20260508073456 50 206 7.8 13.0 0.00 0.15 0.00 59 1009.0
20260508072959 50 203 6.1 13.0 0.00 0.15 0.00 59 1009.4
20260508072458 50 218 3.5 17.4 0.00 0.16 0.00 59 1009.1
20260508071959 50 220 3.5 17.4 0.00 0.20 0.00 60 1009.1
20260508070958 50 217 5.2 9.6 0.00 0.23 0.00 60 1009.2
20260508070000 50 221 3.5 11.3 0.00 0.23 0.00 60 1009.0
20260508065001 50 222 3.5 12.2 0.00 0.23 0.00 59 1008.9
20260508064458 50 229 3.5 11.3 0.00 0.23 0.00 59 1009.1
20260508063959 51 232 2.6 15.6 0.00 0.23 0.00 58 1009.4
20260508063457 51 229 5.2 15.6 0.00 0.23 0.00 57 1009.2
20260508063000 51 229 4.3 13.9 0.00 0.23 0.00 57 1009.0
20260508062458 51 223 7.0 13.9 0.00 0.23 0.00 56 1009.0
20260508061959 51 224 5.2 12.2 0.00 0.23 0.00 56 1009.0
20260508061459 51 226 3.5 14.8 0.00 0.23 0.00 56 1009.2
20260508060959 51 222 7.0 14.8 0.00 0.23 0.00 55 1009.2
20260508055959 52 226 1.7 9.6 0.00 0.23 0.00 55 1009.4
20260508055458 52 229 5.2 12.2 0.00 0.23 0.00 55 1009.3
20260508054959 51 230 3.5 12.2 0.00 0.23 0.00 56 1009.5
20260508054457 51 235 3.5 9.6 0.00 0.23 0.00 57 1009.7
20260508054001 51 227 5.2 9.6 0.00 0.23 0.00 57 1009.6
20260508053001 50 260 3.5 9.6 0.00 0.23 0.00 61 1009.7
20260508052000 49 250 1.7 7.0 0.00 0.23 0.00 67 1010.0
20260508051459 49 252 1.7 7.0 0.00 0.23 0.00 68 1009.8
20260508050959 49 252 2.6 7.0 0.00 0.23 0.00 69 1009.7
20260508050458 49 252 1.7 7.0 0.00 0.23 0.00 69 1009.7
20260508050001 49 261 3.5 7.0 0.00 0.23 0.00 69 1009.7
20260508045458 49 283 1.7 7.0 0.00 0.23 0.00 71 1009.5
20260508044959 48 284 2.6 7.0 0.00 0.23 0.00 72 1009.7
20260508044459 49 286 2.6 6.1 0.00 0.23 0.00 72 1009.5
20260508043959 49 286 3.5 6.1 0.00 0.23 0.00 72 1009.3
20260508043000 51 286 3.5 7.8 0.00 0.23 0.00 69 1009.3
20260508042457 52 276 1.7 7.0 0.00 0.23 0.00 62 1009.4
20260508042000 53 273 1.7 11.3 0.00 0.23 0.00 61 1009.2
20260508041457 54 261 2.6 11.3 0.00 0.23 0.00 58 1009.0
20260508041000 55 241 4.3 13.0 0.00 0.23 0.00 55 1008.7
20260508040457 56 234 3.5 13.0 0.00 0.23 0.00 55 1008.4
20260508040000 55 222 6.1 9.6 0.00 0.23 0.00 55 1008.0
20260508035457 55 208 6.1 11.3 0.00 0.23 0.00 55 1007.9
20260508035000 54 195 7.0 13.0 0.00 0.23 0.00 56 1007.8
20260508033457 53 232 4.3 12.2 0.00 0.23 0.00 58 1008.2
20260508032457 53 229 7.0 9.6 0.00 0.23 0.00 59 1009.0
20260508032001 53 218 2.6 9.6 0.00 0.23 0.00 59 1008.6
20260508031457 53 218 4.3 9.6 0.00 0.23 0.00 59 1008.5
20260508030002 53 238 3.5 9.6 0.00 0.23 0.00 60 1008.6
20260508025458 53 234 1.7 7.8 0.00 0.23 0.23 60 1008.4
20260508025000 53 239 2.6 12.2 0.00 0.23 0.23 59 1008.8
20260508024458 54 239 3.5 12.2 0.00 0.23 0.23 58 1008.8
20260508023458 54 225 3.5 11.3 0.00 0.23 0.23 58 1008.9
20260508023000 54 238 2.6 13.0 0.00 0.23 0.23 57 1009.0
20260508022458 54 231 4.3 13.0 0.00 0.23 0.23 57 1008.9
20260508021959 54 232 3.5 12.2 0.00 0.23 0.23 58 1008.8
20260508021458 54 251 3.5 12.2 0.00 0.23 0.23 58 1009.0
20260508021000 54 257 4.3 12.2 0.00 0.23 0.23 58 1009.0
20260508020000 54 241 4.3 13.0 0.00 0.23 0.23 58 1008.9
20260508015459 54 249 3.5 13.0 0.00 0.23 0.23 59 1008.9
20260508014959 54 252 5.2 12.2 0.00 0.23 0.23 60 1008.6
20260508014459 54 252 3.5 11.3 0.00 0.23 0.23 61 1008.7
20260508013458 54 249 2.6 9.6 0.00 0.23 0.23 62 1008.6
20260508013000 54 242 3.5 13.9 0.00 0.23 0.23 62 1008.7
20260508012459 55 237 2.6 13.9 0.00 0.23 0.23 61 1008.6
20260508012001 54 247 4.3 12.2 0.00 0.23 0.23 62 1008.4
20260508011458 54 258 2.6 7.8 0.00 0.23 0.23 65 1008.3
20260508010959 54 260 1.7 9.6 0.00 0.23 0.23 66 1008.4
20260508010457 54 264 2.6 9.6 0.00 0.23 0.23 65 1008.3
20260508005458 55 250 4.3 9.6 0.00 0.23 0.23 65 1008.2
20260508005003 55 253 4.3 9.6 0.00 0.23 0.23 64 1008.4
20260508004457 55 252 3.5 7.8 0.00 0.23 0.23 65 1008.2
20260508004001 55 254 4.3 9.6 0.00 0.23 0.23 65 1008.4
20260508003459 56 245 3.5 9.6 0.00 0.23 0.23 64 1008.1
20260508003001 56 245 1.7 13.9 0.00 0.23 0.23 64 1008.3
20260508002458 56 249 3.5 13.9 0.00 0.23 0.23 63 1007.9
20260508002000 56 244 3.5 9.6 0.00 0.23 0.23 65 1007.6
20260508001459 56 241 2.6 9.6 0.00 0.23 0.23 64 1007.8
20260508001001 57 251 2.6 13.0 0.00 0.23 0.23 62 1008.0
20260508000000 57 246 4.3 11.3 0.00 0.23 0.23 62 1008.0
20260507235458 57 239 3.5 7.8 0.00 0.23 0.23 62 1007.9
20260507235000 57 233 3.5 7.0 0.00 0.23 0.23 62 1008.0
20260507234457 58 229 1.7 7.8 0.00 0.23 0.23 62 1008.0
20260507234001 58 231 1.7 7.8 0.00 0.23 0.23 62 1008.0
20260507233459 58 242 3.5 7.0 0.00 0.23 0.23 61 1008.0
20260507232001 59 235 1.7 9.6 0.00 0.23 0.23 60 1008.1
20260507231458 59 225 3.5 6.1 0.00 0.23 0.23 60 1008.2
20260507230457 59 231 3.5 9.6 0.00 0.23 0.23 60 1008.2
20260507230001 59 239 3.5 9.6 0.00 0.23 0.23 59 1008.2
20260507225001 59 237 3.5 7.8 0.00 0.23 0.23 60 1008.0
20260507223459 59 243 1.7 7.0 0.00 0.23 0.23 63 1007.8
20260507222458 59 238 4.3 7.0 0.00 0.23 0.23 61 1007.5
20260507222000 59 251 3.5 7.0 0.00 0.23 0.23 63 1007.7
20260507221458 59 267 1.7 3.5 0.00 0.23 0.23 65 1007.4
20260507221001 59 249 2.6 5.2 0.00 0.23 0.23 64 1007.4